Probability
0 0 0 0 0 0 0 0 0 0 0 0 0 0 0 0 0 0 0 0 0 0 0 0 0 0 0 0 0 0 0 0 0 0 0 0 0 0 0 0 0 0 0
0 0 0 0 0 0 0 0 0 0 0 0 0 0 0 0 0 0 0 0 0 0 0 0 0 0 0 0 0 0 0 0 0 0 0 0 0 0 0 0 0 0 0
0 0 0 0 0 0 0 0 0 0 0 0 0 0 0 0 0 0 0 0 0 0 0 0 0 0 0 0 0 0 0 0 0 0 0 0 0 0 0 0 0 0 0
0 0 0 0 0 0 0 0 0 0 0 0 0 0 0 0 0 0 0 0 0 0 0 0 0 0 0 0 0 0 0 0 0 0 0 0 0 0 0 0 0 0 0
0 0 0 0 0 0 0 0 0 0 0 0 0 0 0 0 0 0 0 0 0 0 0 0 0 0 0 0 0 0 0 0 0 0 0 0 0 0 0 0 0 0 0
0 0 0 0 0 0 0 0 0 0 0 0 0 0 0 0 0 0 0 0 0 0 0 0 0 0 0 0 0 0 0 0 0 0 0 0 0 0 0 0 0 0 0
0 0 0 1 1 0 0 0 0 0 0 0 0 0 0 0 0 0 0 0 0 0 0 0 0 0 0 0 0 0 0 0 0 0 0 0 0 0 0 0 0 0 0
0 0 0 1 1 0 0 0 0 0 0 0 0 0 0 0 0 0 0 0 0 0 0 0 0 0 0 0 0 0 0 0 0 0 0 0 0 0 0 0 0 0 0
0 0 0 1 1 0 0 0 0 0 0 0 0 0 0 0 0 0 0 0 0 0 0 0 0 0 0 0 0 0 0 0 0 0 0 1 2 1 0 0 0 0 0
0 0 0 0 1 0 0 0 0 0 0 0 0 0 0 0 0 0 0 0 0 0 0 0 0 0 0 0 0 0 0 0 0 0 0 2 3 2 1 0 0 0 0
0 0 0 0 0 0 0 0 0 0 0 0 0 0 0 0 0 0 0 0 0 0 0 0 0 0 0 0 0 0 0 0 0 0 0 1 3 3 2 1 0 0 0
0 0 0 0 0 0 0 0 0 0 0 0 0 0 0 0 0 0 0 0 0 0 0 0 0 0 0 0 0 0 0 0 0 0 0 1 2 3 3 2 1 0 0
0 0 0 0 0 0 0 0 0 0 0 0 0 0 0 0 0 0 0 0 0 0 0 0 0 0 0 0 0 0 0 0 0 0 0 0 1 2 2 2 1 0 0
0 0 0 0 0 0 0 0 0 0 0 0 0 0 0 0 0 0 0 0 0 0 0 0 0 0 0 0 0 0 0 0 0 0 0 0 0 1 1 1 0 0 0
0 0 0 0 0 0 0 0 0 0 0 0 0 0 0 0 0 0 0 0 0 0 0 0 0 0 0 0 0 0 0 0 0 0 0 0 0 0 0 0 0 0 0
0 0 0 0 0 0 0 0 0 0 0 0 0 0 0 0 0 0 0 0 0 0 0 0 0 0 0 0 0 0 0 0 0 0 0 0 0 0 0 0 0 0 0
0 0 0 0 0 0 0 0 0 0 0 0 0 0 0 0 0 0 0 0 0 0 0 0 0 0 0 0 0 0 0 0 0 0 0 0 0 0 0 0 0 0 0
0 0 0 0 0 0 0 0 0 0 0 0 0 0 0 0 0 0 0 0 0 0 0 0 0 0 0 0 0 0 0 0 0 0 0 0 0 0 0 0 0 0 0
0 0 0 0 0 0 0 0 0 0 0 0 0 0 0 0 0 0 0 0 0 0 0 0 0 0 0 0 0 0 0 0 0 0 0 0 0 0 0 0 0 0 0
0 0 0 0 0 0 0 0 0 0 0 0 0 0 0 0 0 0 0 0 0 0 0 0 0 0 0 0 0 0 0 0 0 0 0 0 0 0 0 0 0 0 0
0 0 0 0 0 0 0 0 0 0 0 0 0 0 0 0 0 0 0 0 0 0 0 0 0 0 0 0 0 0 0 0 0 0 0 0 0 0 0 0 0 0 0
0 0 0 0 0 0 0 0 0 0 0 0 0 0 0 0 0 0 0 0 0 0 0 0 0 0 0 0 0 0 0 0 0 0 0 0 0 0 0 0 0 0 0
0 0 0 0 0 0 0 0 0 0 0 0 0 0 0 0 0 0 0 0 0 0 0 0 0 0 0 0 0 0 0 0 0 0 0 0 0 0 0 0 0 0 0
0 0 0 0 0 0 0 0 0 0 0 0 0 0 0 0 0 0 0 0 0 0 0 0 0 0 0 0 0 0 0 0 0 0 0 0 0 0 0 0 0 0 0
0 0 0 0 0 0 0 0 0 0 0 0 0 0 0 0 0 0 0 0 0 0 0 0 0 0 0 0 0 0 0 0 0 0 0 0 0 0 0 0 0 0 0
0 0 0 0 0 0 0 0 0 0 0 0 0 0 0 0 0 0 0 0 0 0 0 0 0 0 0 0 0 0 0 0 0 0 0 0 0 0 0 0 0 0 0
Wind_Speed
4 4 3 3 4 3 4 4 4 4 5 5 5 5 6 6 6 5 3 6 9 10 11 10 9 8 8 7 6 5 5 4 3 3 2 2 1 2 2 3 4 4 5
4 4 4 4 4 4 4 5 6 5 5 5 6 7 7 7 7 7 6 6 10 12 13 13 13 12 11 10 9 8 8 7 6 5 5 4 3 2 2 2 2 3 3
6 5 5 5 5 5 6 5 6 5 5 6 8 8 7 7 8 8 8 7 7 11 14 16 16 15 13 13 12 11 11 10 9 8 7 6 5 4 4 3 3 2 2
8 6 5 6 6 5 5 5 6 6 6 6 7 6 6 6 9 9 8 8 7 7 9 14 16 16 16 15 14 13 13 13 12 11 10 9 8 7 6 5 4 3 3
8 7 6 6 7 6 6 6 6 6 7 7 6 6 7 7 8 8 10 9 9 8 8 7 11 13 14 16 16 16 15 15 15 14 13 12 11 10 9 8 6 5 4
8 8 7 8 7 6 6 6 7 6 6 6 6 6 7 8 8 8 9 8 7 8 8 8 7 8 13 16 18 18 17 16 16 16 16 15 14 13 11 10 9 8 7
7 7 6 7 7 7 8 8 7 7 6 5 4 6 7 9 8 7 6 6 6 6 6 7 6 6 5 10 15 17 18 18 16 17 17 17 16 15 14 13 11 10 9
5 5 7 7 6 6 8 8 7 5 5 4 4 4 5 6 6 5 4 4 5 3 4 5 6 6 6 5 5 10 15 18 18 17 17 18 17 17 16 14 13 12 11
4 5 6 6 6 6 7 8 7 8 7 5 5 5 5 5 3 2 3 3 3 3 3 3 5 6 6 5 6 6 9 13 17 18 16 17 18 18 17 16 14 13 12
3 3 4 5 6 5 6 7 7 6 7 6 5 6 7 5 4 4 3 3 2 4 4 3 4 5 5 5 5 7 8 11 15 18 18 17 17 17 17 17 16 14 12
2 2 3 4 4 4 6 6 6 6 6 7 5 4 5 4 5 5 6 5 4 3 3 4 4 4 5 5 5 6 8 11 14 16 18 17 16 16 16 15 15 14 12
1 2 3 3 3 3 4 5 6 6 6 7 6 5 4 4 4 5 6 5 4 3 4 3 3 4 4 5 5 9 10 11 13 15 16 16 14 11 12 12 12 12 12
1 3 3 3 3 3 4 4 4 4 4 5 4 3 3 3 2 3 4 4 4 3 3 2 2 4 4 5 5 11 8 11 12 14 15 13 9 7 6 7 7 9 9
2 3 3 3 3 3 3 3 2 2 2 1 2 2 1 1 1 1 2 2 3 3 3 2 2 4 4 5 8 10 7 10 11 11 10 6 4 2 4 5 6 6 5
2 2 2 2 3 3 2 2 1 2 2 3 3 3 2 2 3 2 1 1 3 4 3 1 1 4 5 5 8 6 6 10 10 9 8 7 6 7 7 7 7 5 5
1 1 1 2 2 3 3 2 3 3 3 4 3 4 4 3 3 3 2 1 1 3 3 1 2 4 5 5 7 6 6 9 9 9 7 7 6 7 7 6 5 4 3
1 1 2 3 3 4 4 4 4 4 5 5 5 5 5 5 3 3 2 2 1 1 2 1 1 3 4 5 5 5 5 5 6 10 9 8 7 6 5 5 4 2 3
2 3 3 4 4 4 4 5 5 5 5 6 5 5 5 4 5 4 3 3 2 2 1 1 1 2 3 4 4 4 4 4 5 8 9 8 6 5 3 2 2 2 3
3 4 4 4 5 5 5 5 6 6 6 6 6 6 5 5 5 4 4 3 2 2 1 0 1 1 1 2 3 3 4 4 4 5 6 6 6 4 3 1 2 3 3
4 4 5 5 5 5 5 5 6 6 6 6 6 6 6 5 5 4 3 3 2 2 1 1 0 0 1 1 2 2 2 2 3 3 3 3 3 3 3 3 3 4 5
4 4 5 5 5 4 4 5 5 5 6 6 6 6 7 7 6 5 3 3 3 2 1 1 0 0 1 1 2 2 2 2 1 2 3 2 2 3 3 3 5 6 8
4 4 4 4 5 4 7 6 5 5 5 5 5 5 5 6 7 8 8 7 6 3 2 1 1 1 1 2 2 2 3 3 2 2 4 4 3 4 3 3 4 7 9
5 5 4 5 6 7 8 7 7 5 5 4 4 3 3 4 4 4 5 5 6 7 5 3 2 2 2 3 3 3 3 4 4 4 5 4 2 4 3 3 6 8 10
4 4 4 4 5 6 7 7 7 5 4 3 3 2 2 2 3 3 2 2 2 3 4 3 2 2 2 2 2 3 3 5 5 2 3 4 3 4 4 4 3 6 7
4 3 3 3 3 4 6 6 5 3 3 3 2 1 1 1 3 1 1 1 1 1 2 3 4 4 4 4 4 3 3 4 4 2 1 3 4 5 5 4 1 3 6
4 4 3 2 2 2 4 6 5 2 2 2 2 1 1 3 2 1 3 3 2 2 2 2 2 2 2 1 2 3 3 3 3 3 1 3 4 5 5 3 2 3 5
Wind_Direction
214 218 224 225 233 238 236 246 256 264 267 269 265 268 271 267 266 263 253 221 246 258 259 254 248 243 237 240 240 229 218 220 219 206 196 175 139 112 98 85 76 70 69
226 231 235 234 239 240 248 255 261 268 271 271 273 268 265 265 260 260 262 237 226 241 251 253 251 248 243 239 235 228 221 220 221 217 212 205 196 184 164 136 108 91 81
234 237 245 243 243 244 248 255 263 267 271 270 269 269 268 267 263 261 259 260 245 227 236 246 250 249 247 243 238 231 222 217 219 219 217 213 210 205 191 173 157 135 111
239 244 246 248 251 251 249 251 259 260 260 262 269 273 269 266 267 267 264 256 258 256 236 235 246 250 249 246 243 238 228 217 215 216 215 214 211 212 208 200 190 182 167
240 242 248 253 253 250 249 250 254 257 266 269 272 279 278 273 273 268 264 262 259 259 263 241 234 247 253 251 249 246 240 225 216 215 214 213 213 213 214 211 205 203 200
244 246 250 255 256 250 250 248 251 253 262 276 282 277 273 271 268 266 269 266 261 261 264 269 258 241 238 248 251 250 248 240 224 217 215 214 213 213 215 214 212 212 212
250 249 252 256 251 249 253 255 253 254 253 250 261 270 266 259 261 261 262 271 272 274 273 273 272 273 256 242 248 252 253 251 241 226 219 215 213 213 214 215 216 217 216
260 254 255 257 254 253 256 255 248 246 248 228 242 273 280 267 232 238 253 264 282 286 283 285 282 276 278 275 260 256 259 259 255 245 230 221 215 213 214 216 218 219 220
279 268 265 265 262 256 258 259 252 246 252 241 228 244 267 278 303 233 244 256 277 289 298 308 300 295 289 282 283 266 267 268 265 260 248 233 223 217 214 213 217 220 218
314 300 285 276 269 262 261 264 259 254 253 251 234 233 251 278 274 278 242 243 274 293 310 312 309 308 305 299 294 297 293 281 271 266 260 249 234 223 219 215 214 215 211
332 326 309 289 279 272 268 267 263 253 248 252 248 234 232 239 242 257 272 270 267 280 308 318 318 319 323 316 311 328 315 293 281 272 266 259 245 231 220 215 214 212 208
303 349 334 313 299 290 282 276 269 261 254 252 251 242 234 233 232 238 256 267 274 286 305 311 321 334 341 333 339 344 319 305 295 285 276 269 256 241 225 212 209 209 207
296 342 336 326 319 311 300 289 277 274 270 263 260 257 253 259 268 253 260 268 267 278 282 284 7 1 354 347 353 347 324 320 308 297 288 283 274 247 220 203 194 199 197
317 330 326 327 330 326 319 307 302 315 321 315 321 317 314 348 332 279 267 267 264 257 260 272 58 25 4 354 358 339 336 339 324 313 309 318 342 148 146 156 148 142 140
317 323 329 341 353 355 351 353 20 26 42 42 37 40 44 40 33 19 355 287 268 267 262 334 34 27 6 357 358 346 348 354 354 4 14 36 54 90 101 111 115 118 126
330 328 8 24 30 32 38 55 60 58 73 64 57 65 61 49 49 38 29 15 306 272 263 49 27 6 354 356 3 358 5 4 15 18 34 53 77 92 96 102 115 136 157
30 46 53 60 57 53 60 75 74 73 79 74 66 69 66 56 59 50 46 48 35 302 255 132 51 6 358 2 0 5 12 17 26 35 46 63 79 91 103 116 134 175 221
72 72 79 79 72 65 66 79 82 78 81 79 74 74 68 64 62 52 51 55 47 7 293 234 56 13 3 357 356 10 18 22 28 39 46 56 65 80 101 135 178 217 234
96 91 90 86 82 78 78 81 87 85 81 77 73 73 70 70 68 59 52 48 39 31 9 231 66 27 356 354 352 10 22 22 27 30 38 43 47 47 42 7 252 243 246
105 98 94 91 89 88 88 92 94 94 89 80 72 68 64 63 66 63 55 46 35 44 58 76 104 45 11 356 343 346 356 14 13 10 16 15 17 3 347 330 305 287 274
104 103 105 103 101 96 95 103 101 100 99 92 79 67 59 56 61 56 48 36 25 22 28 20 18 290 11 352 355 345 328 331 358 359 326 315 309 290 279 267 270 273 271
115 109 107 107 101 93 103 103 106 108 103 97 87 73 66 57 59 61 56 46 31 19 8 345 296 320 3 354 344 344 331 319 312 23 325 304 296 286 284 281 287 280 274
124 116 111 110 104 104 107 105 101 101 97 87 82 75 66 60 48 51 59 58 54 48 30 336 338 0 355 2 353 328 336 321 316 343 322 297 299 293 296 280 284 287 282
133 126 121 118 114 113 114 115 110 99 96 90 81 69 66 60 54 23 26 37 41 48 33 10 11 12 356 336 313 308 315 302 287 277 298 291 313 308 307 290 284 288 284
136 134 129 125 121 122 132 136 137 132 123 123 117 80 2 18 64 13 343 325 291 87 60 21 4 354 346 330 313 292 298 303 300 304 333 295 315 317 302 286 242 251 273
148 149 143 147 153 167 164 164 171 170 165 171 180 192 324 332 356 313 305 301 303 326 320 297 274 255 281 316 313 293 291 287 294 305 23 306 313 331 315 302 287 269 264